Regional Weather Roundup
Issued by NWS

Home | Current Version | Previous Version | Text Only | Print | Product List | Glossary Off
Versions: 1 2 3 4 5 6 7 8 9 10 11 12 13 14 15 16 17 18 19 20 21 22 23 24 25 26 27 28 29 30 31 32 33 34 35 36 37 38 39 40 41 42 43 44 45 46 47 48 49 50

000
ASUS43 KIND 211559
RWRIN

WEATHER ROUNDUP FOR INDIANA
NATIONAL WEATHER SERVICE INDIANAPOLIS IN
1100 AM EST TUE NOV 21 2017

NOTE: "FAIR" INDICATES FEW OR NO CLOUDS BELOW 12,000 FEET WITH NO
SIGNIFICANT WEATHER AND/OR OBSTRUCTIONS TO VISIBILITY.

* - STATION DOES NOT REPORT WEATHER SUCH AS PRECIPITATION OR FOG.

+ - STATION NOT QUALITY CONTROLLED BY THE NATIONAL WEATHER SERVICE.
    USE DATA WITH CAUTION...ESPECIALLY DEWPOINT AND RELATIVE
    HUMIDITY OBSERVATIONS.

INZ001>003-010>013-019-020-211700-
NORTHWEST INDIANA

CITY           SKY/WX    TMP DP  RH WIND       PRES   REMARKS
GARY /AIRPORT/ CLOUDY    45  32  61 W14G28    29.80R
KNOX *+        CLOUDY    45  32  61 SW20      29.80R
MICHIGAN CITY+ CLOUDY    45  32  61 SW13G21   29.78R
MONTICELLO +   CLOUDY    45  31  59 SW17G26   29.83R
RENSSELAER +   CLOUDY    45  30  57 SW18G26   29.83R

$$

LMZ046-743>745-211700-
SOUTHERN LAKE MICHIGAN

STATION/POSITION TIME  TEMP    WIND        PRES    WAVE
                       AIR SEA DIR/SP/G            HT
                 (UTC) (F)     (DEG/KT/KT) (MB)    (FT)
BURNS HARBOR     1540   44     220/ 14/ 19 1008.8R
MICHIGAN CITY    1530   44     210/ 21/ 23   N/A

$$

INZ004-005-014>016-021>024-211700-
NORTH CENTRAL INDIANA

CITY           SKY/WX    TMP DP  RH WIND       PRES   REMARKS
ELKHART        PTSUNNY   46  30  53 W16G28    29.78R
GOSHEN         CLOUDY    45  30  55 SW20G29   29.79R
PERU/GRISSOM   CLOUDY    46  33  60 SW23G29   29.83R
SOUTH BEND     MOSUNNY   44  33  65 SW21G31   29.79R
WARSAW +       CLOUDY    45  32  61 SW17G24   29.80R

$$

INZ006>009-017-018-025>027-211700-
NORTHEAST INDIANA

CITY           SKY/WX    TMP DP  RH WIND       PRES   REMARKS
AUBURN +       SUNNY     46  30  53 SW13G22   29.80R
FORT WAYNE     PTSUNNY   48  33  56 SW20G29   29.82R
KENDALLVILLE + SUNNY     45  31  59 SW22G29   29.78R

$$

INZ028-029-035-036-043>045-051>053-211700-
WEST CENTRAL INDIANA

CITY           SKY/WX    TMP DP  RH WIND       PRES   REMARKS
CRAWFORDSVL +  SUNNY     45  33  61 SW18        N/A
GREENCASTLE +  SUNNY     46  30  53 SW7G17    29.90S
LAFAYETTE      CLOUDY    46  33  60 SW12G25   29.86R
TERRE HAUTE    SUNNY     48  31  51 SW12      29.92R

$$

INZ030>032-037>040-046>048-054>057-064-065-211700-
CENTRAL INDIANA

CITY           SKY/WX    TMP DP  RH WIND       PRES   REMARKS
ANDERSON       SUNNY    N/A N/A N/A SW12G23   29.90R
COLUMBUS       MOSUNNY   48  27  43 S15       29.94S
FRANKFORT +    MOSUNNY   49  34  56 SW22G28   29.87S
GREENWOOD *+   SUNNY     52  32  46 SW14      29.91R
INDIANAPOLIS   MOSUNNY   50  31  48 SW14      29.91R
-EAGLE CREEK   SUNNY     49  30  48 SW14G23   29.89R
KOKOMO +       CLOUDY    47  32  56 SW25G31   29.85R
MT COMFORT *+  SUNNY     48  36  61 SW15      29.89R
SHELBYVILLE    SUNNY     50  29  44 S20G25    29.91R

$$

INZ033-034-041-042-049-050-058-059-211700-
EAST CENTRAL INDIANA

CITY           SKY/WX    TMP DP  RH WIND       PRES   REMARKS
MUNCIE         SUNNY     48  29  47 SW16G25   29.86R
RICHMOND +     SUNNY     45  30  57 SW21      29.91R

$$

INZ060-061-067>069-081>083-085>088-211700-
SOUTHWEST INDIANA

CITY           SKY/WX    TMP DP  RH WIND       PRES   REMARKS
EVANSVILLE     SUNNY     49  33  54 S16       29.99R
HUNTINGBURG +  SUNNY     49  33  54 SW17G23   29.99R

$$

INZ062-063-066-070>080-084-089>092-211700-
SOUTH CENTRAL AND SOUTHEAST INDIANA

CITY           SKY/WX    TMP DP  RH WIND       PRES   REMARKS
BLOOMINGTON    SUNNY     49  29  46 SW16G25   29.93R
MADISON *+     SUNNY     50  28  43 S15G22    29.98S
SEYMOUR +      SUNNY     52  32  46 SW17G26   29.95S

$$




USA.gov is the U.S. government's official web portal to all federal, state and local government web resources and services.